RH
91 94 95 93 92 91 89 89 91 93 94 93 92 92 90 90 90 90 92 94 92 92 94 92 86 85 75 75 58 37 69 58 38 29 31 30 35 40 44 39 30 32 28 28 26 22 19
89 92 95 96 94 92 90 90 91 94 94 93 92 92 92 91 90 90 92 94 95 93 94 91 83 82 85 89 41 41 41 42 37 38 40 39 43 42 45 42 39 31 34 32 29 27 23
81 88 93 95 94 95 94 91 92 94 94 93 92 92 91 90 90 90 90 94 96 95 94 88 80 66 83 78 52 49 47 52 48 45 42 42 45 49 50 50 38 34 37 34 29 25 25
83 82 88 93 94 94 95 96 94 93 94 93 92 92 92 91 91 90 91 94 96 94 94 85 78 73 96 53 56 56 60 57 47 45 44 38 42 51 53 45 39 42 46 44 27 23 22
84 84 82 84 96 96 96 96 95 94 93 93 92 93 93 92 92 92 93 96 96 95 86 82 80 89 87 54 59 53 56 58 49 44 45 34 46 55 54 63 64 53 56 48 38 28 26
86 83 85 84 86 93 97 97 97 96 96 93 92 93 92 92 92 94 98 95 94 89 82 65 63 84 67 45 42 44 54 52 53 52 50 52 57 60 65 68 76 58 56 57 51 35 30
79 88 83 84 87 88 96 96 96 97 96 96 92 92 91 90 95 98 96 97 93 95 82 79 76 66 44 40 34 38 35 49 46 52 65 55 68 74 63 56 51 48 50 52 43 33 35
79 81 80 85 85 86 88 94 96 97 97 96 95 92 91 93 95 94 91 96 80 69 92 77 66 67 52 48 57 46 34 41 47 58 44 52 66 53 45 47 49 50 53 53 42 33 43
80 77 80 83 85 86 87 89 96 97 97 96 96 94 93 96 96 96 97 87 65 66 94 72 70 72 62 54 65 56 42 41 46 50 47 55 45 38 43 45 46 46 50 47 43 42 46
79 83 81 82 87 84 86 88 93 95 97 97 97 97 97 98 99 98 98 86 83 80 99 70 70 60 58 56 62 44 42 38 43 49 50 52 39 41 44 46 43 53 37 38 41 48 64
77 79 83 85 84 86 86 89 92 95 97 96 97 97 98 92 96 98 89 91 92 92 99 53 57 41 47 57 49 52 39 52 58 54 48 53 46 46 45 41 36 44 40 41 44 53 59
76 78 82 82 86 88 86 89 92 95 97 97 97 97 97 98 98 92 90 93 94 99 97 64 48 48 64 59 49 39 48 47 46 59 54 55 41 45 42 36 34 32 36 38 45 55 73
79 80 80 86 83 87 88 89 94 96 98 97 97 98 97 94 96 93 94 96 100 99 64 57 54 51 62 69 60 45 50 57 64 75 73 60 54 45 42 48 38 36 48 70 70 75 75
81 80 79 81 83 87 90 89 93 95 98 97 98 98 93 97 95 95 97 99 99 82 67 42 46 49 60 61 62 50 55 64 57 59 65 74 78 47 43 47 52 43 46 70 76 87 75
80 81 81 81 85 84 88 90 92 94 97 98 98 99 98 99 95 93 98 100 96 80 54 47 44 58 61 55 60 58 64 61 53 56 66 67 64 40 36 38 38 53 56 45 68 83 92
82 81 80 81 86 85 88 89 90 91 94 98 98 99 99 98 94 97 99 92 84 64 42 40 56 51 62 59 53 65 62 50 50 45 47 51 59 42 35 33 38 46 44 66 90 98 97
83 81 82 84 86 86 88 89 90 92 93 97 100 100 99 97 97 99 100 99 83 58 51 50 67 52 50 55 52 60 56 45 41 43 43 48 55 52 42 45 44 47 61 61 76 85 89
84 84 83 88 94 91 87 92 95 94 94 98 99 100 99 100 100 100 100 86 79 63 51 58 57 65 52 48 48 52 50 45 43 42 50 49 64 68 51 42 38 47 54 58 90 84 88
83 84 85 90 92 93 94 93 95 97 96 99 100 100 98 100 100 100 98 85 74 57 50 66 62 47 46 44 48 43 54 54 49 48 52 47 73 82 61 47 45 47 49 51 64 81 85
93 91 92 92 92 94 93 95 95 96 93 96 100 100 100 99 99 91 99 92 94 77 70 58 43 39 39 44 52 59 67 54 60 51 59 55 65 69 69 59 56 54 48 42 66 92 87
95 95 95 96 95 96 96 96 96 96 92 96 100 100 92 99 100 98 91 95 97 98 84 73 63 56 54 58 67 74 63 60 58 57 57 59 77 75 73 61 57 60 56 50 46 54 80
95 95 94 94 95 96 97 97 95 93 92 98 100 100 98 99 98 98 98 100 99 96 92 96 74 58 67 79 71 79 71 71 64 58 64 67 94 88 82 68 58 61 52 52 51 47 49
85 88 90 91 90 92 93 92 92 94 91 100 99 97 96 100 100 98 99 99 98 92 92 74 70 71 68 55 55 61 67 64 64 63 72 77 84 83 74 70 69 66 59 52 48 44 50
83 80 79 78 77 75 76 81 81 81 77 95 95 93 97 99 100 99 97 94 96 92 97 83 68 75 60 46 39 37 36 37 51 62 59 79 78 80 78 62 82 44 35 33 38 36 36
82 77 72 71 77 78 79 81 78 75 68 80 88 76 93 99 89 96 95 97 94 96 96 72 65 57 49 54 78 71 68 54 41 38 46 58 76 86 87 82 58 43 33 33 39 40 52
80 73 72 71 78 80 82 82 80 71 72 80 83 89 82 92 91 69 86 84 95 98 94 78 51 49 59 85 88 78 80 63 50 39 32 44 61 80 79 84 76 59 32 28 30 48 61
79 77 75 74 78 81 81 80 81 79 72 73 80 86 76 92 64 76 93 87 74 86 95 79 56 54 61 94 97 90 69 42 57 60 56 72 84 78 87 81 69 49 34 32 54 45 61
79 80 80 78 78 81 79 79 81 81 77 72 73 79 75 88 68 62 66 67 68 74 85 67 70 71 86 89 92 90 84 60 55 61 53 54 68 76 86 83 75 40 38 47 60 66 64
79 80 81 81 82 82 78 80 83 81 76 69 78 77 75 81 69 62 56 58 57 59 66 66 72 77 85 89 91 91 88 81 60 67 50 69 64 73 62 69 54 44 49 54 54 52 62
Wind_Speed
20 22 23 22 22 23 23 22 21 20 18 17 15 14 14 13 12 10 8 6 6 5 4 7 9 13 6 4 10 5 5 5 6 4 4 3 4 4 3 5 7 4 5 10 9 8 9
16 18 22 23 23 24 24 23 22 21 20 19 17 15 13 12 11 10 8 7 6 5 3 3 7 10 3 4 3 5 7 7 4 3 4 4 3 4 3 4 2 6 9 10 6 10 7
20 17 17 21 22 23 25 23 22 22 21 21 20 18 16 15 12 11 9 7 7 5 4 2 4 3 3 16 4 8 10 3 3 4 4 1 1 5 5 6 3 6 8 9 6 8 7
21 20 18 18 22 22 23 23 23 22 22 21 19 18 17 15 13 11 10 8 6 6 4 2 2 1 8 7 6 10 5 9 5 8 6 7 4 2 3 4 8 6 3 4 3 5 8
23 21 21 19 15 21 20 21 24 23 22 22 21 18 17 15 13 11 8 7 6 5 2 2 1 1 10 9 4 8 9 8 2 4 3 7 2 5 2 2 4 3 5 4 6 2 6
18 23 20 19 19 18 20 21 22 23 22 22 22 21 19 16 14 11 10 8 9 6 2 3 3 3 5 6 4 4 6 6 4 1 1 3 2 4 1 4 6 6 5 5 5 9 11
21 19 22 21 21 20 18 21 22 21 22 22 22 22 20 18 16 21 14 7 3 2 5 10 8 5 5 3 5 2 5 5 3 3 6 4 5 8 14 11 6 3 5 8 8 13 6
24 20 18 21 21 22 21 21 20 21 22 23 22 21 19 18 22 22 10 6 5 4 4 17 21 17 18 7 8 15 2 5 5 6 4 1 10 14 10 10 11 11 11 12 9 7 2
24 24 21 21 23 22 24 22 21 21 22 22 22 21 19 22 22 13 12 13 3 2 4 8 12 12 14 12 11 16 6 9 5 6 7 7 9 14 9 11 11 13 12 6 6 4 2
25 24 22 22 22 24 22 23 22 21 22 22 22 22 24 24 13 7 8 7 5 4 5 7 9 10 14 10 9 20 9 8 6 9 7 8 16 15 12 11 10 11 7 6 3 5 3
26 24 24 21 20 23 22 21 21 22 23 24 24 24 29 27 11 12 10 9 8 3 4 4 7 5 10 16 6 10 14 5 10 6 6 8 3 8 9 9 6 4 2 1 1 2 2
27 26 27 26 22 23 23 21 22 23 23 24 25 27 32 16 5 7 16 14 5 4 9 7 6 6 9 15 3 2 13 4 6 6 11 8 6 2 5 1 3 5 4 7 6 3 5
26 25 27 24 22 25 25 23 22 23 23 24 25 27 24 10 11 17 17 6 3 7 7 8 6 7 14 13 12 4 10 10 10 9 16 6 18 11 2 5 3 4 6 3 4 1 7
27 26 26 27 25 22 22 23 23 24 23 24 23 26 21 7 16 23 8 4 8 10 13 5 9 9 10 12 16 5 8 8 5 3 3 9 7 14 8 18 7 6 8 7 7 5 4
27 26 26 27 25 25 26 24 24 25 24 24 22 12 9 7 23 14 12 10 10 8 11 5 13 8 6 5 9 10 8 7 10 9 8 7 7 1 1 7 15 5 5 8 5 3 4
27 27 25 26 26 26 25 26 26 26 25 25 10 8 7 7 20 15 15 22 16 10 8 10 13 10 15 17 8 18 14 10 8 15 8 3 0 2 1 4 2 10 8 5 3 3 5
26 26 27 26 28 28 26 25 26 27 25 30 6 6 2 3 13 11 13 7 3 10 8 6 13 8 9 12 16 15 11 2 19 9 16 5 5 4 2 3 7 2 5 3 7 5 5
24 24 25 21 22 24 23 24 25 26 29 26 5 8 2 2 13 2 11 12 9 15 3 6 2 15 6 12 17 14 12 10 7 11 12 5 6 5 5 2 3 2 4 6 6 5 4
23 23 22 20 23 22 23 27 26 28 36 9 7 3 0 5 14 5 5 6 6 12 13 12 11 2 13 7 6 14 6 3 4 5 10 7 2 3 4 3 4 4 3 4 5 3 4
13 22 16 19 20 20 22 23 27 33 30 8 6 7 2 2 1 11 9 9 6 5 5 2 7 6 4 3 1 7 5 2 2 5 8 7 4 4 9 4 4 4 1 3 5 4 2
26 27 26 27 22 26 25 27 25 20 15 6 1 5 3 8 4 8 8 7 10 5 4 3 3 4 3 5 2 5 4 5 6 5 5 6 5 4 4 4 3 1 3 5 2 3 5
27 28 26 25 27 24 24 22 21 19 15 4 5 4 2 6 9 14 5 4 6 8 7 6 1 7 11 4 3 5 8 3 5 3 4 2 4 4 2 3 3 4 4 5 7 7 7
29 28 27 25 24 22 20 23 18 12 6 3 1 1 3 4 6 5 5 6 10 10 2 9 6 12 13 4 3 3 5 6 6 7 4 5 6 3 2 1 5 7 5 9 4 4 5
26 25 24 22 22 22 19 14 11 11 9 5 3 3 3 5 5 4 13 11 14 8 6 3 6 8 5 2 3 9 11 10 9 6 5 7 7 4 4 4 3 6 0 3 4 7 1
24 23 24 23 21 20 18 16 15 17 16 5 1 4 4 5 7 12 14 11 14 12 5 7 6 4 6 6 5 5 5 5 4 0 3 5 6 4 6 4 4 9 6 5 4 5 2
22 22 21 21 19 19 18 19 17 15 13 6 4 1 5 8 0 10 11 14 8 5 3 1 5 5 6 4 3 4 6 5 5 3 5 4 4 5 4 4 9 4 3 6 4 8 3
20 21 20 19 18 19 19 20 21 17 14 5 3 5 6 6 4 5 4 7 6 4 4 3 5 5 5 3 2 2 3 4 7 8 6 5 1 6 3 4 7 7 5 5 5 8 5
17 17 18 18 18 18 19 20 19 16 13 6 1 4 5 5 5 7 4 4 5 4 5 7 5 4 4 4 4 5 4 4 3 4 7 8 8 5 3 3 10 6 3 10 8 4 6
14 14 14 15 17 17 18 20 20 16 13 7 5 4 4 7 3 2 6 2 4 4 8 3 5 4 5 4 1 3 1 2 5 4 2 4 7 6 10 9 6 4 5 1 5 6 5
Wind_Direction
239 224 219 217 210 207 206 206 206 199 199 199 205 209 206 206 204 210 207 215 245 265 307 337 347 335 350 10 249 286 210 282 298 356 327 329 356 358 334 299 321 202 320 326 316 313 307
245 239 224 215 214 207 210 206 203 201 198 198 201 200 201 204 204 208 204 197 213 250 284 347 338 329 7 266 264 291 23 349 312 1 338 29 33 295 256 307 334 316 323 303 304 308 285
235 240 237 221 212 213 207 206 204 201 201 200 198 198 198 198 199 203 200 187 194 214 241 249 340 328 236 248 275 319 320 287 303 296 283 277 76 42 337 316 332 304 310 304 288 257 262
238 228 231 238 216 214 212 202 205 203 199 198 199 197 194 194 192 195 192 182 184 203 201 212 360 66 254 259 267 274 231 279 232 249 247 260 291 265 197 294 338 334 309 339 284 322 272
248 234 226 226 240 211 212 212 204 203 200 196 193 192 192 187 185 181 177 165 176 157 126 171 188 135 265 297 244 256 196 230 210 239 240 244 157 199 196 106 352 285 255 252 297 239 276
264 241 231 221 215 232 212 210 206 200 199 199 192 189 187 183 172 151 132 120 113 111 199 208 259 354 249 249 208 209 166 174 208 215 266 220 190 184 67 138 213 211 233 230 277 296 317
248 251 237 229 214 211 220 210 205 203 198 195 195 189 183 177 147 129 119 115 138 223 220 201 184 237 280 268 331 189 163 144 206 138 181 181 177 211 215 211 214 254 269 269 273 275 274
232 240 248 243 226 212 216 217 207 200 197 197 193 187 178 160 149 153 152 196 178 167 246 227 243 233 271 287 301 299 200 168 161 198 152 29 236 227 227 231 234 243 253 265 273 247 350
228 230 230 240 237 220 210 218 209 200 197 195 189 180 168 155 152 156 193 199 141 100 297 223 209 224 226 231 232 237 192 190 189 196 198 193 236 219 219 244 238 244 239 247 247 276 4
233 219 224 233 231 231 217 211 211 203 199 191 188 174 161 142 152 163 194 149 112 71 252 260 210 248 189 202 253 210 186 162 201 191 217 242 243 249 229 237 225 242 230 238 342 14 265
234 227 221 225 235 227 225 216 207 202 196 189 183 173 154 163 137 188 153 136 100 71 259 199 195 189 173 176 141 211 189 167 204 207 156 233 240 221 234 228 221 234 151 114 36 319 325
231 229 224 220 222 224 217 216 207 202 194 188 183 172 163 176 131 139 137 125 106 114 232 272 177 203 142 196 211 88 177 134 171 217 257 243 288 215 220 295 144 163 81 38 34 45 294
228 228 227 217 220 224 212 208 205 198 190 187 181 172 172 158 185 144 141 136 115 192 190 218 177 183 175 175 215 140 157 169 180 185 228 256 258 260 251 282 203 110 81 359 345 303 230
225 225 225 221 217 211 211 207 202 195 187 184 179 177 189 177 140 147 165 146 183 184 207 203 148 167 209 150 197 147 145 178 225 140 144 197 290 219 206 206 183 175 152 157 209 216 281
223 223 223 221 215 216 208 207 200 192 178 178 169 187 192 183 153 165 176 206 194 192 188 193 148 159 209 196 167 175 185 185 199 170 174 172 241 43 89 182 172 188 181 176 112 13 43
219 221 222 223 217 218 206 205 202 195 179 169 184 189 198 152 169 174 203 216 184 209 166 223 179 187 182 188 185 194 170 196 195 196 200 230 18 281 187 71 50 191 165 116 25 181 239
219 216 218 220 218 214 202 204 200 188 174 173 175 168 163 327 162 196 202 218 196 219 215 253 203 211 203 178 193 192 191 155 187 179 188 172 130 281 96 185 181 156 148 107 133 165 187
213 215 213 208 219 204 198 189 189 180 167 169 175 171 162 246 180 140 208 153 221 205 215 167 212 256 222 185 195 193 194 169 175 153 158 174 140 193 195 353 141 121 157 143 150 210 192
215 207 213 205 204 191 189 188 179 171 169 142 146 113 339 246 200 167 145 175 216 169 162 172 194 175 244 222 195 203 128 13 96 113 153 172 184 102 8 340 357 94 66 103 108 84 188
156 124 140 178 163 188 188 178 175 171 171 106 143 128 317 83 170 150 158 161 146 16 139 310 179 122 283 225 314 137 118 118 72 95 89 89 94 187 213 154 141 158 168 87 117 106 187
100 96 91 82 95 106 110 116 115 112 136 92 157 147 212 166 155 153 126 144 148 145 57 339 318 118 136 193 62 85 88 121 38 108 73 97 125 85 80 100 84 139 252 99 100 157 174
84 82 79 80 80 73 96 94 95 96 94 83 119 127 99 92 126 119 118 147 139 123 150 158 80 88 78 77 259 173 130 137 157 117 98 70 112 108 109 177 157 262 239 165 212 245 250
80 81 82 85 85 85 82 79 78 96 75 78 16 134 135 127 135 116 139 140 160 139 46 178 129 101 89 104 86 12 62 92 130 130 117 116 127 103 276 210 54 312 265 206 170 208 197
76 80 83 84 91 88 83 82 90 126 150 126 194 126 115 108 98 108 119 111 124 112 128 60 79 104 177 255 24 38 42 42 77 77 119 135 120 100 128 99 230 233 65 227 213 259 325
80 80 79 77 74 76 72 56 62 71 77 86 47 100 95 86 115 119 139 125 102 91 86 110 32 106 130 79 68 66 4 29 341 149 129 121 118 123 154 197 311 277 188 199 131 285 216
79 78 78 76 71 69 67 61 58 56 56 76 48 153 97 123 171 151 142 147 131 135 107 66 73 66 76 84 69 141 173 150 182 201 196 123 60 112 160 164 203 241 128 99 101 271 145
83 84 79 72 68 66 63 59 58 57 59 86 33 18 77 100 15 114 109 154 118 103 108 126 144 89 73 95 108 122 217 180 164 172 163 128 99 176 145 205 276 223 186 64 163 243 189
72 73 78 75 69 61 60 56 54 47 44 61 6 4 102 81 10 39 98 116 116 116 134 179 74 10 63 112 155 186 183 218 165 210 172 165 166 190 93 163 263 192 212 168 204 202 182
81 76 74 72 72 66 57 54 47 43 54 63 38 357 48 77 127 17 94 47 90 149 126 33 131 139 165 105 137 105 179 149 168 215 173 199 179 180 181 209 212 208 179 166 175 199 194